Torna al catalogo

NOAA 13

AttivoMeteoSSO
NORAD 22739·PAYLOAD·🇺🇸 United States

Lanciato Aug 9, 1993 da Vandenberg Space Force Base

Loading…

Prossimi Passaggi (prossime 24 ore)

TLE

AggiornatoSource: Space-Track

Epoca: Sep 14, 2026, 13:20 UTC

1 22739U 93050A   26257.55606268  .00000054  00000-0  51238-4 0  9992
2 22739  98.7093 200.2571 0008482 231.7930 128.2480 14.13680600706002

Traccia NOAA 13 in tempo reale con AllMySat

Download on the App Store